Location: Cazavet
(43.0017°N, 1.0431°E)
Time: 21:56:10
(UTC+00:00)

Cosmos 2074 Rocket - Pass Details

Date: 18 January 2026
Orbit: 966 x 986 km, 82.9° (Epoch: 10 February)

Event Time Altitude Azimuth Distance (km) Brightness Sun altitude
Rises 05:11:58 0° 188° (S) 3,679 7.0 -23.6°
Reaches altitude 10° 05:14:29 10° 190° (S) 2,735 6.3 -23.1°
Maximum altitude 05:20:46 82° 278° (W) 1,001 3.9 -22.0°
Drops below altitude 10° 05:27:06 10° 6° (N) 2,748 6.3 -20.8°
Sets 05:29:37 0° 8° (N) 3,698 7.0 -20.4°
